Year,Month,Day,Hour,Minute,Value (Times are PST for windgust in km/hr)
2006,03,07,00,00,0.00
2006,03,07,00,01,0.00
2006,03,07,00,02,0.00
2006,03,07,00,03,0.00
2006,03,07,00,04,0.00
2006,03,07,00,05,0.00
2006,03,07,00,06,0.00
2006,03,07,00,07,0.00
2006,03,07,00,08,0.00
2006,03,07,00,09,1.60
2006,03,07,00,10,1.60
2006,03,07,00,11,1.60
2006,03,07,00,12,0.00
2006,03,07,00,13,0.00
2006,03,07,00,14,0.00
2006,03,07,00,15,0.00
2006,03,07,00,16,0.00
2006,03,07,00,17,0.00
2006,03,07,00,18,0.00
2006,03,07,00,19,0.00
2006,03,07,00,20,0.00
2006,03,07,00,21,0.00
2006,03,07,00,22,0.00
2006,03,07,00,23,1.60
2006,03,07,00,24,1.60
2006,03,07,00,25,0.00
2006,03,07,00,26,0.00
2006,03,07,00,27,3.20
2006,03,07,00,28,4.80
2006,03,07,00,29,0.00
2006,03,07,00,30,1.60
2006,03,07,00,31,0.00
2006,03,07,00,32,3.20
2006,03,07,00,33,3.20
2006,03,07,00,34,3.20
2006,03,07,00,35,1.60
2006,03,07,00,36,0.00
2006,03,07,00,37,0.00
2006,03,07,00,38,0.00
2006,03,07,00,39,0.00
2006,03,07,00,40,0.00
2006,03,07,00,41,1.60
2006,03,07,00,42,0.00
2006,03,07,00,43,0.00
2006,03,07,00,44,0.00
2006,03,07,00,45,0.00
2006,03,07,00,46,0.00
2006,03,07,00,47,1.60
2006,03,07,00,48,0.00
2006,03,07,00,49,0.00
2006,03,07,00,50,0.00
2006,03,07,00,51,0.00
2006,03,07,00,52,0.00
2006,03,07,00,53,0.00
2006,03,07,00,54,1.60
2006,03,07,00,55,1.60
2006,03,07,00,56,0.00
2006,03,07,00,57,0.00
2006,03,07,00,58,1.60
2006,03,07,00,59,0.00
2006,03,07,01,00,0.00
2006,03,07,01,01,3.20
2006,03,07,01,02,0.00
2006,03,07,01,03,0.00
2006,03,07,01,04,0.00
2006,03,07,01,05,1.60
2006,03,07,01,06,1.60
2006,03,07,01,07,4.80
2006,03,07,01,08,3.20
2006,03,07,01,09,1.60
2006,03,07,01,10,0.00
2006,03,07,01,11,0.00
2006,03,07,01,12,0.00
2006,03,07,01,13,0.00
2006,03,07,01,14,0.00
2006,03,07,01,15,0.00
2006,03,07,01,16,0.00
2006,03,07,01,17,0.00
2006,03,07,01,18,0.00
2006,03,07,01,19,0.00
2006,03,07,01,20,0.00
2006,03,07,01,21,0.00
2006,03,07,01,22,0.00
2006,03,07,01,23,0.00
2006,03,07,01,24,0.00
2006,03,07,01,25,0.00
2006,03,07,01,26,0.00
2006,03,07,01,27,0.00
2006,03,07,01,28,0.00
2006,03,07,01,29,0.00
2006,03,07,01,30,0.00
2006,03,07,01,31,0.00
2006,03,07,01,32,0.00
2006,03,07,01,33,0.00
2006,03,07,01,34,0.00
2006,03,07,01,35,0.00
2006,03,07,01,36,1.60
2006,03,07,01,37,0.00
2006,03,07,01,38,0.00
2006,03,07,01,39,0.00
2006,03,07,01,40,1.60
2006,03,07,01,41,1.60
2006,03,07,01,42,0.00
2006,03,07,01,43,0.00
2006,03,07,01,44,0.00
2006,03,07,01,45,0.00
2006,03,07,01,46,0.00
2006,03,07,01,47,0.00
2006,03,07,01,48,1.60
2006,03,07,01,49,1.60
2006,03,07,01,50,0.00
2006,03,07,01,51,0.00
2006,03,07,01,52,0.00
2006,03,07,01,53,0.00
2006,03,07,01,54,0.00
2006,03,07,01,55,0.00
2006,03,07,01,56,3.20
2006,03,07,01,57,3.20
2006,03,07,01,58,0.00
2006,03,07,01,59,0.00
2006,03,07,02,00,0.00
2006,03,07,02,01,0.00
2006,03,07,02,02,1.60
2006,03,07,02,03,1.60
2006,03,07,02,04,0.00
2006,03,07,02,05,0.00
2006,03,07,02,06,0.00
2006,03,07,02,07,4.80
2006,03,07,02,08,6.40
2006,03,07,02,09,3.20
2006,03,07,02,10,4.80
2006,03,07,02,11,4.80
2006,03,07,02,12,1.60
2006,03,07,02,13,0.00
2006,03,07,02,14,1.60
2006,03,07,02,15,0.00
2006,03,07,02,16,4.80
2006,03,07,02,17,1.60
2006,03,07,02,18,1.60
2006,03,07,02,19,1.60
2006,03,07,02,20,3.20
2006,03,07,02,21,3.20
2006,03,07,02,22,0.00
2006,03,07,02,23,0.00
2006,03,07,02,24,0.00
2006,03,07,02,25,1.60
2006,03,07,02,26,0.00
2006,03,07,02,27,0.00
2006,03,07,02,28,0.00
2006,03,07,02,29,0.00
2006,03,07,02,30,1.60
2006,03,07,02,31,3.20
2006,03,07,02,32,3.20
2006,03,07,02,33,3.20
2006,03,07,02,34,1.60
2006,03,07,02,35,3.20
2006,03,07,02,36,3.20
2006,03,07,02,37,1.60
2006,03,07,02,38,3.20
2006,03,07,02,39,1.60
2006,03,07,02,40,0.00
2006,03,07,02,41,0.00
2006,03,07,02,42,3.20
2006,03,07,02,43,1.60
2006,03,07,02,44,0.00
2006,03,07,02,45,0.00
2006,03,07,02,46,3.20
2006,03,07,02,47,3.20
2006,03,07,02,48,3.20
2006,03,07,02,49,1.60
2006,03,07,02,50,3.20
2006,03,07,02,51,0.00
2006,03,07,02,52,0.00
2006,03,07,02,53,0.00
2006,03,07,02,54,1.60
2006,03,07,02,55,0.00
2006,03,07,02,56,0.00
2006,03,07,02,57,0.00
2006,03,07,02,58,4.80
2006,03,07,02,59,4.80
2006,03,07,03,00,3.20
2006,03,07,03,01,0.00
2006,03,07,03,02,1.60
2006,03,07,03,03,0.00
2006,03,07,03,04,1.60
2006,03,07,03,05,1.60
2006,03,07,03,06,1.60
2006,03,07,03,07,0.00
2006,03,07,03,08,1.60
2006,03,07,03,09,0.00
2006,03,07,03,10,0.00
2006,03,07,03,11,0.00
2006,03,07,03,12,1.60
2006,03,07,03,13,0.00
2006,03,07,03,14,3.20
2006,03,07,03,15,8.10
2006,03,07,03,16,8.10
2006,03,07,03,17,4.80
2006,03,07,03,18,6.40
2006,03,07,03,19,11.30
2006,03,07,03,20,12.90
2006,03,07,03,21,11.30
2006,03,07,03,22,4.80
2006,03,07,03,23,6.40
2006,03,07,03,24,11.30
2006,03,07,03,25,3.20
2006,03,07,03,26,4.80
2006,03,07,03,27,1.60
2006,03,07,03,28,1.60
2006,03,07,03,29,1.60
2006,03,07,03,30,6.40
2006,03,07,03,31,3.20
2006,03,07,03,32,1.60
2006,03,07,03,33,0.00
2006,03,07,03,34,1.60
2006,03,07,03,35,3.20
2006,03,07,03,36,3.20
2006,03,07,03,37,3.20
2006,03,07,03,38,6.40
2006,03,07,03,39,3.20
2006,03,07,03,40,1.60
2006,03,07,03,41,1.60
2006,03,07,03,42,8.10
2006,03,07,03,43,3.20
2006,03,07,03,44,3.20
2006,03,07,03,45,1.60
2006,03,07,03,46,1.60
2006,03,07,03,47,1.60
2006,03,07,03,48,1.60
2006,03,07,03,49,4.80
2006,03,07,03,50,1.60
2006,03,07,03,51,6.40
2006,03,07,03,52,4.80
2006,03,07,03,53,6.40
2006,03,07,03,54,1.60
2006,03,07,03,55,1.60
2006,03,07,03,56,1.60
2006,03,07,03,57,1.60
2006,03,07,03,58,3.20
2006,03,07,03,59,3.20
2006,03,07,04,00,1.60
2006,03,07,04,01,1.60
2006,03,07,04,02,3.20
2006,03,07,04,03,1.60
2006,03,07,04,04,3.20
2006,03,07,04,05,3.20
2006,03,07,04,06,8.10
2006,03,07,04,07,1.60
2006,03,07,04,08,3.20
2006,03,07,04,09,1.60
2006,03,07,04,10,8.10
2006,03,07,04,11,6.40
2006,03,07,04,12,6.40
2006,03,07,04,13,4.80
2006,03,07,04,14,0.00
2006,03,07,04,15,4.80
2006,03,07,04,16,1.60
2006,03,07,04,17,4.80
2006,03,07,04,18,3.20
2006,03,07,04,19,3.20
2006,03,07,04,20,3.20
2006,03,07,04,21,8.10
2006,03,07,04,22,1.60
2006,03,07,04,23,6.40
2006,03,07,04,24,3.20
2006,03,07,04,25,4.80
2006,03,07,04,26,3.20
2006,03,07,04,27,3.20
2006,03,07,04,28,1.60
2006,03,07,04,29,4.80
2006,03,07,04,30,4.80
2006,03,07,04,31,3.20
2006,03,07,04,32,3.20
2006,03,07,04,33,3.20
2006,03,07,04,34,6.40
2006,03,07,04,35,3.20
2006,03,07,04,36,4.80
2006,03,07,04,37,3.20
2006,03,07,04,38,1.60
2006,03,07,04,39,1.60
2006,03,07,04,40,1.60
2006,03,07,04,41,1.60
2006,03,07,04,42,0.00
2006,03,07,04,43,1.60
2006,03,07,04,44,0.00
2006,03,07,04,45,1.60
2006,03,07,04,46,1.60
2006,03,07,04,47,1.60
2006,03,07,04,48,1.60
2006,03,07,04,49,3.20
2006,03,07,04,50,3.20
2006,03,07,04,51,1.60
2006,03,07,04,52,3.20
2006,03,07,04,53,1.60
2006,03,07,04,54,1.60
2006,03,07,04,55,1.60
2006,03,07,04,56,1.60
2006,03,07,04,57,0.00
2006,03,07,04,58,0.00
2006,03,07,04,59,0.00
2006,03,07,05,00,1.60
2006,03,07,05,01,3.20
2006,03,07,05,02,0.00
2006,03,07,05,03,0.00
2006,03,07,05,04,0.00
2006,03,07,05,05,0.00
2006,03,07,05,06,0.00
2006,03,07,05,07,0.00
2006,03,07,05,08,1.60
2006,03,07,05,09,3.20
2006,03,07,05,10,3.20
2006,03,07,05,11,4.80
2006,03,07,05,12,1.60
2006,03,07,05,13,1.60
2006,03,07,05,14,1.60
2006,03,07,05,15,3.20
2006,03,07,05,16,4.80
2006,03,07,05,17,3.20
2006,03,07,05,18,6.40
2006,03,07,05,19,4.80
2006,03,07,05,20,4.80
2006,03,07,05,21,4.80
2006,03,07,05,22,3.20
2006,03,07,05,23,3.20
2006,03,07,05,24,4.80
2006,03,07,05,25,3.20
2006,03,07,05,26,3.20
2006,03,07,05,27,1.60
2006,03,07,05,28,0.00
2006,03,07,05,29,4.80
2006,03,07,05,30,4.80
2006,03,07,05,31,1.60
2006,03,07,05,32,1.60
2006,03,07,05,33,1.60
2006,03,07,05,34,1.60
2006,03,07,05,35,3.20
2006,03,07,05,36,0.00
2006,03,07,05,37,3.20
2006,03,07,05,38,1.60
2006,03,07,05,39,3.20
2006,03,07,05,40,3.20
2006,03,07,05,41,4.80
2006,03,07,05,42,3.20
2006,03,07,05,43,3.20
2006,03,07,05,44,6.40
2006,03,07,05,45,4.80
2006,03,07,05,46,4.80
2006,03,07,05,47,6.40
2006,03,07,05,48,6.40
2006,03,07,05,49,8.10
2006,03,07,05,50,6.40
2006,03,07,05,51,4.80
2006,03,07,05,52,4.80
2006,03,07,05,53,3.20
2006,03,07,05,54,3.20
2006,03,07,05,55,4.80
2006,03,07,05,56,8.10
2006,03,07,05,57,3.20
2006,03,07,05,58,3.20
2006,03,07,05,59,6.40
2006,03,07,06,00,6.40
2006,03,07,06,01,6.40
2006,03,07,06,02,6.40
2006,03,07,06,03,8.10
2006,03,07,06,04,6.40
2006,03,07,06,05,4.80
2006,03,07,06,06,6.40
2006,03,07,06,07,3.20
2006,03,07,06,08,3.20
2006,03,07,06,09,4.80
2006,03,07,06,10,6.40
2006,03,07,06,11,9.60
2006,03,07,06,12,6.40
2006,03,07,06,13,6.40
2006,03,07,06,14,4.80
2006,03,07,06,15,4.80
2006,03,07,06,16,6.40
2006,03,07,06,17,8.10
2006,03,07,06,18,4.80
2006,03,07,06,19,4.80
2006,03,07,06,20,8.10
2006,03,07,06,21,4.80
2006,03,07,06,22,8.10
2006,03,07,06,23,3.20
2006,03,07,06,24,4.80
2006,03,07,06,25,4.80
2006,03,07,06,26,8.10
2006,03,07,06,27,3.20
2006,03,07,06,28,4.80
2006,03,07,06,29,4.80
2006,03,07,06,30,3.20
2006,03,07,06,31,8.10
2006,03,07,06,32,6.40
2006,03,07,06,33,4.80
2006,03,07,06,34,6.40
2006,03,07,06,35,4.80
2006,03,07,06,36,14.50
2006,03,07,06,37,11.30
2006,03,07,06,38,4.80
2006,03,07,06,39,4.80
2006,03,07,06,40,4.80
2006,03,07,06,41,4.80
2006,03,07,06,42,4.80
2006,03,07,06,43,16.10
2006,03,07,06,44,9.60
2006,03,07,06,45,9.60
2006,03,07,06,46,9.60
2006,03,07,06,47,9.60
2006,03,07,06,48,11.30
2006,03,07,06,49,16.10
2006,03,07,06,50,11.30
2006,03,07,06,51,14.50
2006,03,07,06,52,11.30
2006,03,07,06,53,6.40
2006,03,07,06,54,3.20
2006,03,07,06,55,9.60
2006,03,07,06,56,4.80
2006,03,07,06,57,4.80
2006,03,07,06,58,3.20
2006,03,07,06,59,3.20
2006,03,07,07,00,3.20
2006,03,07,07,01,3.20
2006,03,07,07,02,4.80
2006,03,07,07,03,3.20
2006,03,07,07,04,1.60
2006,03,07,07,05,1.60
2006,03,07,07,06,3.20
2006,03,07,07,07,1.60
2006,03,07,07,08,3.20
2006,03,07,07,09,3.20
2006,03,07,07,10,1.60
2006,03,07,07,11,1.60
2006,03,07,07,12,1.60
2006,03,07,07,13,1.60
2006,03,07,07,14,0.00
2006,03,07,07,15,1.60
2006,03,07,07,16,0.00
2006,03,07,07,17,1.60
2006,03,07,07,18,1.60
2006,03,07,07,19,0.00
2006,03,07,07,20,0.00
2006,03,07,07,21,0.00
2006,03,07,07,22,0.00
2006,03,07,07,23,0.00
2006,03,07,07,24,0.00
2006,03,07,07,25,0.00
2006,03,07,07,26,0.00
2006,03,07,07,27,0.00
2006,03,07,07,28,0.00
2006,03,07,07,29,0.00
2006,03,07,07,30,0.00
2006,03,07,07,31,0.00
2006,03,07,07,32,1.60
2006,03,07,07,33,1.60
2006,03,07,07,34,0.00
2006,03,07,07,35,0.00
2006,03,07,07,36,0.00
2006,03,07,07,37,0.00
2006,03,07,07,38,0.00
2006,03,07,07,39,0.00
2006,03,07,07,40,1.60
2006,03,07,07,41,0.00
2006,03,07,07,42,3.20
2006,03,07,07,43,1.60
2006,03,07,07,44,0.00
2006,03,07,07,45,3.20
2006,03,07,07,46,3.20
2006,03,07,07,47,3.20
2006,03,07,07,48,4.80
2006,03,07,07,49,3.20
2006,03,07,07,50,0.00
2006,03,07,07,51,1.60
2006,03,07,07,52,1.60
2006,03,07,07,53,0.00
2006,03,07,07,54,6.40
2006,03,07,07,55,4.80
2006,03,07,07,56,3.20
2006,03,07,07,57,3.20
2006,03,07,07,58,1.60
2006,03,07,07,59,1.60
2006,03,07,08,00,3.20
2006,03,07,08,01,1.60
2006,03,07,08,02,3.20
2006,03,07,08,03,3.20
2006,03,07,08,04,1.60
2006,03,07,08,05,0.00
2006,03,07,08,06,0.00
2006,03,07,08,07,3.20
2006,03,07,08,08,1.60
2006,03,07,08,09,1.60
2006,03,07,08,10,1.60
2006,03,07,08,11,3.20
2006,03,07,08,12,6.40
2006,03,07,08,13,4.80
2006,03,07,08,14,4.80
2006,03,07,08,15,4.80
2006,03,07,08,16,4.80
2006,03,07,08,17,6.40
2006,03,07,08,18,8.10
2006,03,07,08,19,6.40
2006,03,07,08,20,4.80
2006,03,07,08,21,4.80
2006,03,07,08,22,9.60
2006,03,07,08,23,4.80
2006,03,07,08,24,6.40
2006,03,07,08,25,4.80
2006,03,07,08,26,9.60
2006,03,07,08,27,4.80
2006,03,07,08,28,4.80
2006,03,07,08,29,8.10
2006,03,07,08,30,6.40
2006,03,07,08,31,4.80
2006,03,07,08,32,9.60
2006,03,07,08,33,8.10
2006,03,07,08,34,8.10
2006,03,07,08,35,6.40
2006,03,07,08,36,6.40
2006,03,07,08,37,6.40
2006,03,07,08,38,4.80
2006,03,07,08,39,4.80
2006,03,07,08,40,4.80
2006,03,07,08,41,11.30
2006,03,07,08,42,8.10
2006,03,07,08,43,4.80
2006,03,07,08,44,8.10
2006,03,07,08,45,11.30
2006,03,07,08,46,8.10
2006,03,07,08,47,8.10
2006,03,07,08,48,8.10
2006,03,07,08,49,8.10
2006,03,07,08,50,6.40
2006,03,07,08,51,11.30
2006,03,07,08,52,11.30
2006,03,07,08,53,8.10
2006,03,07,08,54,11.30
2006,03,07,08,55,9.60
2006,03,07,08,56,6.40
2006,03,07,08,57,6.40
2006,03,07,08,58,6.40
2006,03,07,08,59,6.40
2006,03,07,09,00,4.80
2006,03,07,09,01,8.10
2006,03,07,09,02,16.10
2006,03,07,09,03,14.50
2006,03,07,09,04,16.10
2006,03,07,09,05,8.10
2006,03,07,09,06,8.10
2006,03,07,09,07,6.40
2006,03,07,09,08,14.50
2006,03,07,09,09,6.40
2006,03,07,09,10,6.40
2006,03,07,09,11,9.60
2006,03,07,09,12,8.10
2006,03,07,09,13,8.10
2006,03,07,09,14,8.10
2006,03,07,09,15,6.40
2006,03,07,09,16,9.60
2006,03,07,09,17,14.50
2006,03,07,09,18,8.10
2006,03,07,09,19,11.30
2006,03,07,09,20,11.30
2006,03,07,09,21,4.80
2006,03,07,09,22,9.60
2006,03,07,09,23,17.70
2006,03,07,09,24,14.50
2006,03,07,09,25,14.50
2006,03,07,09,26,11.30
2006,03,07,09,27,6.40
2006,03,07,09,28,6.40
2006,03,07,09,29,16.10
2006,03,07,09,30,16.10
2006,03,07,09,31,9.60
2006,03,07,09,32,14.50
2006,03,07,09,33,22.50
2006,03,07,09,34,16.10
2006,03,07,09,35,19.30
2006,03,07,09,36,25.70
2006,03,07,09,37,8.10
2006,03,07,09,38,20.90
2006,03,07,09,39,24.20
2006,03,07,09,40,16.10
2006,03,07,09,41,11.30
2006,03,07,09,42,11.30
2006,03,07,09,43,27.40
2006,03,07,09,44,19.30
2006,03,07,09,45,14.50
2006,03,07,09,46,9.60
2006,03,07,09,47,6.40
2006,03,07,09,48,22.50
2006,03,07,09,49,17.70
2006,03,07,09,50,20.90
2006,03,07,09,51,16.10
2006,03,07,09,52,19.30
2006,03,07,09,53,17.70
2006,03,07,09,54,20.90
2006,03,07,09,55,24.20
2006,03,07,09,56,17.70
2006,03,07,09,57,6.40
2006,03,07,09,58,19.30
2006,03,07,09,59,14.50
2006,03,07,10,00,19.30
2006,03,07,10,01,20.90
2006,03,07,10,02,14.50
2006,03,07,10,03,9.60
2006,03,07,10,04,17.70
2006,03,07,10,05,17.70
2006,03,07,10,06,9.60
2006,03,07,10,07,19.30
2006,03,07,10,08,22.50
2006,03,07,10,09,20.90
2006,03,07,10,10,22.50
2006,03,07,10,11,19.30
2006,03,07,10,12,11.30
2006,03,07,10,13,30.60
2006,03,07,10,14,27.40
2006,03,07,10,15,17.70
2006,03,07,10,16,19.30
2006,03,07,10,17,27.40
2006,03,07,10,18,20.90
2006,03,07,10,19,22.50
2006,03,07,10,20,17.70
2006,03,07,10,21,11.30
2006,03,07,10,22,19.30
2006,03,07,10,23,14.50
2006,03,07,10,24,20.90
2006,03,07,10,25,25.70
2006,03,07,10,26,20.90
2006,03,07,10,27,29.00
2006,03,07,10,28,24.20
2006,03,07,10,29,27.40
2006,03,07,10,30,17.70
2006,03,07,10,31,24.20
2006,03,07,10,32,24.20
2006,03,07,10,33,25.70
2006,03,07,10,34,30.60
2006,03,07,10,35,30.60
2006,03,07,10,36,16.10
2006,03,07,10,37,32.20
2006,03,07,10,38,33.80
2006,03,07,10,39,24.20
2006,03,07,10,40,16.10
2006,03,07,10,41,12.90
2006,03,07,10,42,30.60
2006,03,07,10,43,19.30
2006,03,07,10,44,25.70
2006,03,07,10,45,22.50
2006,03,07,10,46,19.30
2006,03,07,10,47,27.40
2006,03,07,10,48,20.90
2006,03,07,10,49,16.10
2006,03,07,10,50,20.90
2006,03,07,10,51,27.40
2006,03,07,10,52,30.60
2006,03,07,10,53,29.00
2006,03,07,10,54,32.20
2006,03,07,10,55,16.10
2006,03,07,10,56,30.60
2006,03,07,10,57,25.70
2006,03,07,10,58,27.40
2006,03,07,10,59,9.60
2006,03,07,11,00,25.70
2006,03,07,11,01,24.20
2006,03,07,11,02,19.30
2006,03,07,11,03,20.90
2006,03,07,11,04,9.60
2006,03,07,11,05,24.20
2006,03,07,11,06,27.40
2006,03,07,11,07,19.30
2006,03,07,11,08,29.00
2006,03,07,11,09,25.70
2006,03,07,11,10,20.90
2006,03,07,11,11,32.20
2006,03,07,11,12,16.10
2006,03,07,11,13,25.70
2006,03,07,11,14,32.20
2006,03,07,11,15,29.00
2006,03,07,11,16,25.70
2006,03,07,11,17,22.50
2006,03,07,11,18,14.50
2006,03,07,11,19,25.70
2006,03,07,11,20,24.20
2006,03,07,11,21,22.50
2006,03,07,11,22,17.70
2006,03,07,11,23,25.70
2006,03,07,11,24,30.60
2006,03,07,11,25,19.30
2006,03,07,11,26,22.50
2006,03,07,11,27,20.90
2006,03,07,11,28,27.40
2006,03,07,11,29,25.70
2006,03,07,11,30,25.70
2006,03,07,11,31,25.70
2006,03,07,11,32,19.30
2006,03,07,11,33,17.70
2006,03,07,11,34,25.70
2006,03,07,11,35,17.70
2006,03,07,11,36,20.90
2006,03,07,11,37,33.80
2006,03,07,11,38,11.30
2006,03,07,11,39,25.70
2006,03,07,11,40,25.70
2006,03,07,11,41,17.70
2006,03,07,11,42,20.90
2006,03,07,11,43,24.20
2006,03,07,11,44,25.70
2006,03,07,11,45,19.30
2006,03,07,11,46,22.50
2006,03,07,11,47,19.30
2006,03,07,11,48,20.90
2006,03,07,11,49,24.20
2006,03,07,11,50,22.50
2006,03,07,11,51,20.90
2006,03,07,11,52,29.00
2006,03,07,11,53,27.40
2006,03,07,11,54,24.20
2006,03,07,11,55,20.90
2006,03,07,11,56,20.90
2006,03,07,11,57,29.00
2006,03,07,11,58,29.00
2006,03,07,11,59,25.70
2006,03,07,12,00,25.70
2006,03,07,12,01,17.70
2006,03,07,12,02,27.40
2006,03,07,12,03,24.20
2006,03,07,12,04,25.70
2006,03,07,12,05,25.70
2006,03,07,12,06,25.70
2006,03,07,12,07,22.50
2006,03,07,12,08,17.70
2006,03,07,12,09,25.70
2006,03,07,12,10,25.70
2006,03,07,12,11,30.60
2006,03,07,12,12,25.70
2006,03,07,12,13,27.40
2006,03,07,12,14,24.20
2006,03,07,12,15,30.60
2006,03,07,12,16,32.20
2006,03,07,12,17,33.80
2006,03,07,12,18,24.20
2006,03,07,12,19,19.30
2006,03,07,12,20,22.50
2006,03,07,12,21,11.30
2006,03,07,12,22,14.50
2006,03,07,12,23,22.50
2006,03,07,12,24,24.20
2006,03,07,12,25,32.20
2006,03,07,12,26,25.70
2006,03,07,12,27,25.70
2006,03,07,12,28,33.80
2006,03,07,12,29,22.50
2006,03,07,12,30,19.30
2006,03,07,12,31,17.70
2006,03,07,12,32,22.50
2006,03,07,12,33,25.70
2006,03,07,12,34,25.70
2006,03,07,12,35,27.40
2006,03,07,12,36,24.20
2006,03,07,12,37,20.90
2006,03,07,12,38,22.50
2006,03,07,12,39,25.70
2006,03,07,12,40,22.50
2006,03,07,12,41,29.00
2006,03,07,12,42,17.70
2006,03,07,12,43,30.60
2006,03,07,12,44,19.30
2006,03,07,12,45,27.40
2006,03,07,12,46,25.70
2006,03,07,12,47,20.90
2006,03,07,12,48,20.90
2006,03,07,12,49,24.20
2006,03,07,12,50,27.40
2006,03,07,12,51,12.90
2006,03,07,12,52,29.00
2006,03,07,12,53,24.20
2006,03,07,12,54,24.20
2006,03,07,12,55,29.00
2006,03,07,12,56,29.00
2006,03,07,12,57,30.60
2006,03,07,12,58,33.80
2006,03,07,12,59,17.70
2006,03,07,13,00,20.90
2006,03,07,13,01,33.80
2006,03,07,13,02,33.80
2006,03,07,13,03,24.20
2006,03,07,13,04,27.40
2006,03,07,13,05,20.90
2006,03,07,13,06,22.50
2006,03,07,13,07,17.70
2006,03,07,13,08,24.20
2006,03,07,13,09,35.40
2006,03,07,13,10,35.40
2006,03,07,13,11,25.70
2006,03,07,13,12,35.40
2006,03,07,13,13,35.40
2006,03,07,13,14,33.80
2006,03,07,13,15,32.20
2006,03,07,13,16,33.80
2006,03,07,13,17,29.00
2006,03,07,13,18,29.00
2006,03,07,13,19,17.70
2006,03,07,13,20,25.70
2006,03,07,13,21,37.00
2006,03,07,13,22,27.40
2006,03,07,13,23,27.40
2006,03,07,13,24,32.20
2006,03,07,13,25,29.00
2006,03,07,13,26,30.60
2006,03,07,13,27,35.40
2006,03,07,13,28,27.40
2006,03,07,13,29,35.40
2006,03,07,13,30,30.60
2006,03,07,13,31,30.60
2006,03,07,13,32,30.60
2006,03,07,13,33,32.20
2006,03,07,13,34,40.20
2006,03,07,13,35,38.60
2006,03,07,13,36,40.20
2006,03,07,13,37,38.60
2006,03,07,13,38,29.00
2006,03,07,13,39,35.40
2006,03,07,13,40,37.00
2006,03,07,13,41,20.90
2006,03,07,13,42,35.40
2006,03,07,13,43,29.00
2006,03,07,13,44,30.60
2006,03,07,13,45,27.40
2006,03,07,13,46,33.80
2006,03,07,13,47,33.80
2006,03,07,13,48,27.40
2006,03,07,13,49,29.00
2006,03,07,13,50,37.00
2006,03,07,13,51,33.80
2006,03,07,13,52,20.90
2006,03,07,13,53,24.20
2006,03,07,13,54,30.60
2006,03,07,13,55,33.80
2006,03,07,13,56,33.80
2006,03,07,13,57,25.70
2006,03,07,13,58,24.20
2006,03,07,13,59,20.90
2006,03,07,14,00,20.90
2006,03,07,14,01,20.90
2006,03,07,14,02,27.40
2006,03,07,14,03,27.40
2006,03,07,14,04,20.90
2006,03,07,14,05,25.70
2006,03,07,14,06,22.50
2006,03,07,14,07,16.10
2006,03,07,14,08,24.20
2006,03,07,14,09,29.00
2006,03,07,14,10,33.80
2006,03,07,14,11,33.80
2006,03,07,14,12,29.00
2006,03,07,14,13,29.00
2006,03,07,14,14,25.70
2006,03,07,14,15,30.60
2006,03,07,14,16,24.20
2006,03,07,14,17,32.20
2006,03,07,14,18,25.70
2006,03,07,14,19,30.60
2006,03,07,14,20,22.50
2006,03,07,14,21,25.70
2006,03,07,14,22,30.60
2006,03,07,14,23,35.40
2006,03,07,14,24,33.80
2006,03,07,14,25,29.00
2006,03,07,14,26,27.40
2006,03,07,14,27,24.20
2006,03,07,14,28,22.50
2006,03,07,14,29,33.80
2006,03,07,14,30,40.20
2006,03,07,14,31,29.00
2006,03,07,14,32,29.00
2006,03,07,14,33,27.40
2006,03,07,14,34,20.90
2006,03,07,14,35,25.70
2006,03,07,14,36,17.70
2006,03,07,14,37,17.70
2006,03,07,14,38,40.20
2006,03,07,14,39,29.00
2006,03,07,14,40,33.80
2006,03,07,14,41,38.60
2006,03,07,14,42,30.60
2006,03,07,14,43,32.20
2006,03,07,14,44,27.40
2006,03,07,14,45,30.60
2006,03,07,14,46,35.40
2006,03,07,14,47,33.80
2006,03,07,14,48,29.00
2006,03,07,14,49,32.20
2006,03,07,14,50,33.80
2006,03,07,14,51,30.60
2006,03,07,14,52,32.20
2006,03,07,14,53,25.70
2006,03,07,14,54,22.50
2006,03,07,14,55,30.60
2006,03,07,14,56,22.50
2006,03,07,14,57,45.10
2006,03,07,14,58,35.40
2006,03,07,14,59,22.50
2006,03,07,15,00,41.80
2006,03,07,15,01,33.80
2006,03,07,15,02,27.40
2006,03,07,15,03,41.80
2006,03,07,15,04,40.20
2006,03,07,15,05,35.40
2006,03,07,15,06,27.40
2006,03,07,15,07,30.60
2006,03,07,15,08,29.00
2006,03,07,15,09,25.70
2006,03,07,15,10,20.90
2006,03,07,15,11,25.70
2006,03,07,15,12,19.30
2006,03,07,15,13,30.60
2006,03,07,15,14,29.00
2006,03,07,15,15,20.90
2006,03,07,15,16,16.10
2006,03,07,15,17,16.10
2006,03,07,15,18,29.00
2006,03,07,15,19,27.40
2006,03,07,15,20,22.50
2006,03,07,15,21,32.20
2006,03,07,15,22,35.40
2006,03,07,15,23,27.40
2006,03,07,15,24,30.60
2006,03,07,15,25,29.00
2006,03,07,15,26,24.20
2006,03,07,15,27,37.00
2006,03,07,15,28,27.40
2006,03,07,15,29,30.60
2006,03,07,15,30,32.20
2006,03,07,15,31,32.20
2006,03,07,15,32,35.40
2006,03,07,15,33,29.00
2006,03,07,15,34,37.00
2006,03,07,15,35,30.60
2006,03,07,15,36,32.20
2006,03,07,15,37,30.60
2006,03,07,15,38,37.00
2006,03,07,15,39,33.80
2006,03,07,15,40,24.20
2006,03,07,15,41,24.20
2006,03,07,15,42,29.00
2006,03,07,15,43,35.40
2006,03,07,15,44,29.00
2006,03,07,15,45,33.80
2006,03,07,15,46,25.70
2006,03,07,15,47,25.70
2006,03,07,15,48,29.00
2006,03,07,15,49,27.40
2006,03,07,15,50,32.20
2006,03,07,15,51,37.00
2006,03,07,15,52,32.20
2006,03,07,15,53,33.80
2006,03,07,15,54,30.60
2006,03,07,15,55,25.70
2006,03,07,15,56,25.70
2006,03,07,15,57,27.40
2006,03,07,15,58,19.30
2006,03,07,15,59,30.60
2006,03,07,16,00,29.00
2006,03,07,16,01,30.60
2006,03,07,16,02,22.50
2006,03,07,16,03,22.50
2006,03,07,16,04,22.50
2006,03,07,16,05,24.20
2006,03,07,16,06,17.70
2006,03,07,16,07,20.90
2006,03,07,16,08,25.70
2006,03,07,16,09,27.40
2006,03,07,16,10,27.40
2006,03,07,16,11,29.00
2006,03,07,16,12,20.90
2006,03,07,16,13,19.30
2006,03,07,16,14,33.80
2006,03,07,16,15,30.60
2006,03,07,16,16,27.40
2006,03,07,16,17,24.20
2006,03,07,16,18,29.00
2006,03,07,16,19,25.70
2006,03,07,16,20,24.20
2006,03,07,16,21,19.30
2006,03,07,16,22,24.20
2006,03,07,16,23,27.40
2006,03,07,16,24,30.60
2006,03,07,16,25,19.30
2006,03,07,16,26,24.20
2006,03,07,16,27,20.90
2006,03,07,16,28,22.50
2006,03,07,16,29,19.30
2006,03,07,16,30,27.40
2006,03,07,16,31,20.90
2006,03,07,16,32,25.70
2006,03,07,16,33,25.70
2006,03,07,16,34,16.10
2006,03,07,16,35,20.90
2006,03,07,16,36,20.90
2006,03,07,16,37,20.90
2006,03,07,16,38,25.70
2006,03,07,16,39,22.50
2006,03,07,16,40,20.90
2006,03,07,16,41,24.20
2006,03,07,16,42,25.70
2006,03,07,16,43,24.20
2006,03,07,16,44,25.70
2006,03,07,16,45,27.40
2006,03,07,16,46,20.90
2006,03,07,16,47,19.30
2006,03,07,16,48,19.30
2006,03,07,16,49,24.20
2006,03,07,16,50,19.30
2006,03,07,16,51,16.10
2006,03,07,16,52,17.70
2006,03,07,16,53,17.70
2006,03,07,16,54,25.70
2006,03,07,16,55,9.60
2006,03,07,16,56,14.50
2006,03,07,16,57,17.70
2006,03,07,16,58,17.70
2006,03,07,16,59,14.50
2006,03,07,17,00,27.40
2006,03,07,17,01,22.50
2006,03,07,17,02,17.70
2006,03,07,17,03,25.70
2006,03,07,17,04,32.20
2006,03,07,17,05,30.60
2006,03,07,17,06,24.20
2006,03,07,17,07,11.30
2006,03,07,17,08,20.90
2006,03,07,17,09,19.30
2006,03,07,17,10,17.70
2006,03,07,17,11,24.20
2006,03,07,17,12,17.70
2006,03,07,17,13,16.10
2006,03,07,17,14,9.60
2006,03,07,17,15,19.30
2006,03,07,17,16,14.50
2006,03,07,17,17,22.50
2006,03,07,17,18,11.30
2006,03,07,17,19,20.90
2006,03,07,17,20,30.60
2006,03,07,17,21,16.10
2006,03,07,17,22,16.10
2006,03,07,17,23,30.60
2006,03,07,17,24,27.40
2006,03,07,17,25,30.60
2006,03,07,17,26,27.40
2006,03,07,17,27,20.90
2006,03,07,17,28,19.30
2006,03,07,17,29,14.50
2006,03,07,17,30,8.10
2006,03,07,17,31,19.30
2006,03,07,17,32,20.90
2006,03,07,17,33,27.40
2006,03,07,17,34,24.20
2006,03,07,17,35,29.00
2006,03,07,17,36,29.00
2006,03,07,17,37,11.30
2006,03,07,17,38,20.90
2006,03,07,17,39,22.50
2006,03,07,17,40,29.00
2006,03,07,17,41,20.90
2006,03,07,17,42,24.20
2006,03,07,17,43,22.50